,,PA_Meas_PMT16A,,PR_Meas_QMR101_102,,RH_Meas_QMH101,,SR_Meas_QMS101,,TA_Meas_QMH101,,GenWind,,GenWind,
time,status,PA,status,PR,status,RH,status,SR,status,TA,status,DirAvg,status,SpdAvg,
2012-10-02, 00:00:04,VALID,920.655,VALID,0,VALID,92.5559,VALID,0,VALID,19.8033,VALID,134,VALID,0,
2012-10-02, 00:01:04,VALID,920.627,VALID,0,VALID,92.5178,VALID,0,VALID,19.8228,VALID,134,VALID,0,
2012-10-02, 00:02:04,VALID,920.599,VALID,0,VALID,92.3958,VALID,0,VALID,19.8018,VALID,134,VALID,0,
2012-10-02, 00:03:04,VALID,920.606,VALID,0,VALID,92.2967,VALID,0,VALID,19.8228,VALID,134,VALID,0,
2012-10-02, 00:04:04,VALID,920.599,VALID,0,VALID,92.0451,VALID,0,VALID,19.7838,VALID,134,VALID,0,
2012-10-02, 00:05:04,VALID,920.577,VALID,0,VALID,91.8393,VALID,0,VALID,19.7643,VALID,134,VALID,0,
2012-10-02, 00:06:04,VALID,920.535,VALID,0,VALID,92.4644,VALID,0,VALID,19.7448,VALID,134,VALID,0,
2012-10-02, 00:07:04,VALID,920.489,VALID,0,VALID,92.6245,VALID,0,VALID,19.7058,VALID,134,VALID,0,
2012-10-02, 00:08:04,VALID,920.494,VALID,0,VALID,92.8151,VALID,0,VALID,19.6473,VALID,134,VALID,0,
2012-10-02, 00:09:04,VALID,920.485,VALID,0,VALID,93.1658,VALID,0,VALID,19.6668,VALID,134,VALID,0,
2012-10-02, 00:10:04,VALID,920.451,VALID,0,VALID,93.3868,VALID,0,VALID,19.6278,VALID,134,VALID,0,
2012-10-02, 00:11:04,VALID,920.444,VALID,0,VALID,93.5469,VALID,0,VALID,19.6278,VALID,134,VALID,0,
2012-10-02, 00:12:04,VALID,920.444,VALID,0,VALID,93.8366,VALID,0,VALID,19.6083,VALID,134,VALID,0,
2012-10-02, 00:13:04,VALID,920.426,VALID,0,VALID,94.073,VALID,0,VALID,19.5693,VALID,134,VALID,0,
2012-10-02, 00:14:04,VALID,920.44,VALID,0,VALID,94.2407,VALID,0,VALID,19.5093,VALID,134,VALID,0,
2012-10-02, 00:15:04,VALID,920.401,VALID,0,VALID,94.4465,VALID,0,VALID,19.5108,VALID,134,VALID,0,
2012-10-02, 00:16:04,VALID,920.363,VALID,0,VALID,94.5532,VALID,0,VALID,19.4718,VALID,134,VALID,0,
2012-10-02, 00:17:04,VALID,920.311,VALID,0,VALID,94.6752,VALID,0,VALID,19.4927,VALID,134,VALID,0,
2012-10-02, 00:18:04,VALID,920.298,VALID,0,VALID,94.8658,VALID,0.107441,VALID,19.5093,VALID,134,VALID,0,
2012-10-02, 00:19:04,VALID,920.285,VALID,0,VALID,95.0411,VALID,0,VALID,19.5093,VALID,134,VALID,0,
2012-10-02, 00:20:04,VALID,920.306,VALID,0,VALID,95.0869,VALID,0,VALID,19.5303,VALID,134,VALID,0,
2012-10-02, 00:21:04,VALID,920.331,VALID,0,VALID,95.1402,VALID,0,VALID,19.5093,VALID,134,VALID,0,
2012-10-02, 00:22:04,VALID,920.347,VALID,0,VALID,95.1555,VALID,0,VALID,19.5288,VALID,134,VALID,0,
2012-10-02, 00:23:04,VALID,920.391,VALID,0,VALID,95.1021,VALID,0,VALID,19.5303,VALID,134,VALID,0,
2012-10-02, 00:24:04,VALID,920.43,VALID,0,VALID,94.9725,VALID,0,VALID,19.5303,VALID,134,VALID,0,
2012-10-02, 00:25:04,VALID,920.424,VALID,0,VALID,94.9115,VALID,0,VALID,19.4703,VALID,134,VALID,0,
2012-10-02, 00:26:04,VALID,920.424,VALID,0,VALID,94.8429,VALID,0,VALID,19.4718,VALID,131,VALID,0,
2012-10-02, 00:27:04,VALID,920.451,VALID,0,VALID,94.7819,VALID,0,VALID,19.4523,VALID,129,VALID,0,
2012-10-02, 00:28:04,VALID,920.44,VALID,0,VALID,94.7896,VALID,0.107441,VALID,19.4313,VALID,122,VALID,0,
2012-10-02, 00:29:04,VALID,920.451,VALID,0,VALID,94.7591,VALID,0,VALID,19.4523,VALID,122,VALID,0,
2012-10-02, 00:30:04,VALID,920.487,VALID,0,VALID,94.6218,VALID,0,VALID,19.4118,VALID,122,VALID,0,
2012-10-02, 00:31:04,VALID,920.491,VALID,0,VALID,94.3931,VALID,0,VALID,19.3937,VALID,122,VALID,0,
2012-10-02, 00:32:04,VALID,920.529,VALID,0,VALID,94.2178,VALID,0,VALID,19.3338,VALID,122,VALID,0,
2012-10-02, 00:33:04,VALID,920.58,VALID,0,VALID,94.3245,VALID,0,VALID,19.3143,VALID,122,VALID,0,
2012-10-02, 00:34:04,VALID,920.603,VALID,0,VALID,94.4922,VALID,0.107441,VALID,19.3143,VALID,122,VALID,0,
2012-10-02, 00:35:04,VALID,920.646,VALID,0,VALID,94.599,VALID,0.107441,VALID,19.3338,VALID,122,VALID,0,
2012-10-02, 00:36:04,VALID,920.617,VALID,0,VALID,94.6828,VALID,0,VALID,19.3338,VALID,132,VALID,0,
2012-10-02, 00:37:04,VALID,920.627,VALID,0,VALID,94.7438,VALID,0,VALID,19.3742,VALID,132,VALID,0,
2012-10-02, 00:38:04,VALID,920.597,VALID,0,VALID,94.6828,VALID,0,VALID,19.3728,VALID,132,VALID,0,
2012-10-02, 00:39:04,VALID,920.564,VALID,0,VALID,94.7896,VALID,0,VALID,19.4132,VALID,130,VALID,0,
2012-10-02, 00:40:04,VALID,920.531,VALID,0,VALID,94.7438,VALID,0,VALID,19.4132,VALID,127,VALID,0,
2012-10-02, 00:41:04,VALID,920.485,VALID,0,VALID,94.5837,VALID,0,VALID,19.3742,VALID,127,VALID,0,
2012-10-02, 00:42:04,VALID,920.448,VALID,0,VALID,94.3931,VALID,0,VALID,19.3157,VALID,127,VALID,0,
2012-10-02, 00:43:04,VALID,920.422,VALID,0,VALID,94.4694,VALID,0,VALID,19.2753,VALID,127,VALID,0,
2012-10-02, 00:44:04,VALID,920.415,VALID,0,VALID,94.6295,VALID,0.107441,VALID,19.2753,VALID,127,VALID,0,
2012-10-02, 00:45:04,VALID,920.395,VALID,0,VALID,94.7438,VALID,0,VALID,19.2767,VALID,127,VALID,0,
2012-10-02, 00:46:04,VALID,920.41,VALID,0,VALID,94.7591,VALID,0,VALID,19.2572,VALID,127,VALID,0,
2012-10-02, 00:47:04,VALID,920.487,VALID,0,VALID,94.7743,VALID,0.107441,VALID,19.2168,VALID,127,VALID,0,
2012-10-02, 00:48:04,VALID,920.486,VALID,0,VALID,94.7667,VALID,0,VALID,19.1778,VALID,127,VALID,0,
2012-10-02, 00:49:04,VALID,920.547,VALID,0,VALID,94.8277,VALID,0.107441,VALID,19.1583,VALID,127,VALID,0,
2012-10-02, 00:50:04,VALID,920.587,VALID,0,VALID,95.0183,VALID,0,VALID,19.1597,VALID,127,VALID,0,
2012-10-02, 00:51:04,VALID,920.582,VALID,0,VALID,95.2851,VALID,0,VALID,19.1973,VALID,127,VALID,0,
2012-10-02, 00:52:04,VALID,920.599,VALID,0,VALID,95.3689,VALID,0,VALID,19.2363,VALID,126,VALID,0,
2012-10-02, 00:53:04,VALID,920.587,VALID,0,VALID,95.4528,VALID,0,VALID,19.2558,VALID,126,VALID,0,
2012-10-02, 00:54:04,VALID,920.61,VALID,0,VALID,95.4528,VALID,0,VALID,19.2753,VALID,126,VALID,0,
2012-10-02, 00:55:04,VALID,920.619,VALID,0,VALID,95.4223,VALID,0,VALID,19.3143,VALID,126,VALID,0,
2012-10-02, 00:56:04,VALID,920.614,VALID,0,VALID,95.3537,VALID,0,VALID,19.3547,VALID,126,VALID,0,
2012-10-02, 00:57:04,VALID,920.634,VALID,0,VALID,95.3308,VALID,0.107441,VALID,19.3937,VALID,126,VALID,0,
2012-10-02, 00:58:04,VALID,920.63,VALID,0,VALID,95.1936,VALID,0,VALID,19.3937,VALID,126,VALID,0,
2012-10-02, 00:59:04,VALID,920.652,VALID,0,VALID,95.1707,VALID,0,VALID,19.4132,VALID,126,VALID,0,
2012-10-02, 01:00:04,VALID,920.653,VALID,0,VALID,95.0792,VALID,0,VALID,19.3923,VALID,126,VALID,0,
2012-10-02, 01:01:04,VALID,920.693,VALID,0,VALID,94.9649,VALID,0,VALID,19.3728,VALID,126,VALID,0,
2012-10-02, 01:02:04,VALID,920.667,VALID,0,VALID,94.7438,VALID,0,VALID,19.3143,VALID,126,VALID,0,
2012-10-02, 01:03:04,VALID,920.684,VALID,0,VALID,94.8582,VALID,0,VALID,19.3352,VALID,126,VALID,0,
2012-10-02, 01:04:04,VALID,920.673,VALID,0,VALID,95.1402,VALID,0.107441,VALID,19.3533,VALID,120,VALID,0,
2012-10-02, 01:05:04,VALID,920.643,VALID,0,VALID,95.2851,VALID,0,VALID,19.3923,VALID,118,VALID,0,
2012-10-02, 01:06:04,VALID,920.642,VALID,0,VALID,95.2851,VALID,0,VALID,19.4718,VALID,118,VALID,0,
2012-10-02, 01:07:04,VALID,920.606,VALID,0,VALID,95.2088,VALID,0,VALID,19.4703,VALID,118,VALID,0,
2012-10-02, 01:08:04,VALID,920.567,VALID,0,VALID,95.1174,VALID,0,VALID,19.4898,VALID,118,VALID,0,
2012-10-02, 01:09:04,VALID,920.54,VALID,0,VALID,94.9725,VALID,0,VALID,19.4898,VALID,118,VALID,0,
2012-10-02, 01:10:04,VALID,920.519,VALID,0,VALID,94.7743,VALID,0,VALID,19.4898,VALID,118,VALID,0,
2012-10-02, 01:11:04,VALID,920.524,VALID,0,VALID,94.5837,VALID,0,VALID,19.4898,VALID,118,VALID,0,
2012-10-02, 01:12:04,VALID,920.47,VALID,0,VALID,94.538,VALID,0.107441,VALID,19.4913,VALID,118,VALID,0,
2012-10-02, 01:13:04,VALID,920.455,VALID,0,VALID,94.477,VALID,0,VALID,19.4913,VALID,118,VALID,0,
2012-10-02, 01:14:04,VALID,920.478,VALID,0,VALID,94.4846,VALID,0,VALID,19.4913,VALID,118,VALID,0,
2012-10-02, 01:15:04,VALID,920.452,VALID,0,VALID,94.4846,VALID,0,VALID,19.4913,VALID,118,VALID,0,
2012-10-02, 01:16:04,VALID,920.436,VALID,0,VALID,94.4236,VALID,0,VALID,19.4913,VALID,118,VALID,0,
2012-10-02, 01:17:04,VALID,920.426,VALID,0,VALID,94.2559,VALID,0,VALID,19.4898,VALID,118,VALID,0,
2012-10-02, 01:18:04,VALID,920.432,VALID,0,VALID,94.1339,VALID,0,VALID,19.5093,VALID,118,VALID,0,
2012-10-02, 01:19:04,VALID,920.433,VALID,0,VALID,94.0272,VALID,0,VALID,19.5498,VALID,118,VALID,0,
2012-10-02, 01:20:04,VALID,920.404,VALID,0,VALID,93.9205,VALID,0,VALID,19.5693,VALID,118,VALID,0,
2012-10-02, 01:21:04,VALID,920.404,VALID,0,VALID,93.8366,VALID,0,VALID,19.5888,VALID,118,VALID,0,
2012-10-02, 01:22:04,VALID,920.404,VALID,0,VALID,93.7147,VALID,0,VALID,19.6083,VALID,118,VALID,0,
2012-10-02, 01:23:04,VALID,920.407,VALID,0,VALID,93.5774,VALID,0,VALID,19.6083,VALID,118,VALID,0,
2012-10-02, 01:24:04,VALID,920.408,VALID,0,VALID,93.6537,VALID,0,VALID,19.6083,VALID,118,VALID,0,
2012-10-02, 01:25:04,VALID,920.386,VALID,0,VALID,93.6384,VALID,0,VALID,19.5873,VALID,118,VALID,0,
2012-10-02, 01:26:04,VALID,920.405,VALID,0,VALID,93.4936,VALID,0,VALID,19.6278,VALID,118,VALID,0,
2012-10-02, 01:27:04,VALID,920.418,VALID,0,VALID,93.5698,VALID,0,VALID,19.6263,VALID,118,VALID,0,
2012-10-02, 01:28:04,VALID,920.427,VALID,0,VALID,93.5241,VALID,0,VALID,19.6068,VALID,118,VALID,0,
2012-10-02, 01:29:04,VALID,920.411,VALID,0,VALID,93.5774,VALID,0,VALID,19.5873,VALID,118,VALID,0,
2012-10-02, 01:30:04,VALID,920.381,VALID,0,VALID,93.5622,VALID,0,VALID,19.6083,VALID,118,VALID,0,
2012-10-02, 01:31:04,VALID,920.379,VALID,0,VALID,93.4631,VALID,0,VALID,19.5678,VALID,118,VALID,0,
2012-10-02, 01:32:04,VALID,920.364,VALID,0,VALID,93.1581,VALID,0,VALID,19.5498,VALID,118,VALID,0,
2012-10-02, 01:33:04,VALID,920.348,VALID,0,VALID,93.2572,VALID,0,VALID,19.5093,VALID,118,VALID,0,
2012-10-02, 01:34:04,VALID,920.317,VALID,0,VALID,93.3868,VALID,0,VALID,19.5288,VALID,118,VALID,0,
2012-10-02, 01:35:04,VALID,920.272,VALID,0,VALID,93.5317,VALID,0,VALID,19.5498,VALID,118,VALID,0,
2012-10-02, 01:36:04,VALID,920.311,VALID,0,VALID,93.6232,VALID,0,VALID,19.5888,VALID,118,VALID,0,
2012-10-02, 01:37:04,VALID,920.254,VALID,0,VALID,93.4707,VALID,0,VALID,19.5888,VALID,118,VALID,0,
2012-10-02, 01:38:04,VALID,920.27,VALID,0,VALID,93.3868,VALID,0,VALID,19.6278,VALID,118,VALID,0,
2012-10-02, 01:39:04,VALID,920.268,VALID,0,VALID,93.1886,VALID,0,VALID,19.6278,VALID,118,VALID,0,
2012-10-02, 01:40:04,VALID,920.23,VALID,0,VALID,93.1353,VALID,0,VALID,19.6668,VALID,118,VALID,0,
2012-10-02, 01:41:04,VALID,920.251,VALID,0,VALID,93.0895,VALID,0,VALID,19.6653,VALID,118,VALID,0,
2012-10-02, 01:42:04,VALID,920.228,VALID,0,VALID,92.838,VALID,0,VALID,19.6473,VALID,118,VALID,0,
2012-10-02, 01:43:04,VALID,920.21,VALID,0,VALID,92.7922,VALID,0,VALID,19.6473,VALID,118,VALID,0,
2012-10-02, 01:44:04,VALID,920.197,VALID,0,VALID,92.7846,VALID,0,VALID,19.6473,VALID,118,VALID,0,
2012-10-02, 01:45:04,VALID,920.186,VALID,0,VALID,92.7998,VALID,0,VALID,19.6458,VALID,118,VALID,0,
2012-10-02, 01:46:04,VALID,920.175,VALID,0,VALID,92.8303,VALID,0,VALID,19.6863,VALID,118,VALID,0,
2012-10-02, 01:47:04,VALID,920.174,VALID,0,VALID,92.838,VALID,0,VALID,19.7058,VALID,118,VALID,0,
2012-10-02, 01:48:04,VALID,920.167,VALID,0,VALID,92.9904,VALID,0,VALID,19.6848,VALID,118,VALID,0,
2012-10-02, 01:49:04,VALID,920.126,VALID,0,VALID,93.0743,VALID,0,VALID,19.7253,VALID,118,VALID,0,
2012-10-02, 01:50:04,VALID,920.128,VALID,0,VALID,92.7617,VALID,0,VALID,19.7058,VALID,118,VALID,0,
2012-10-02, 01:51:04,VALID,920.096,VALID,0,VALID,92.5406,VALID,0,VALID,19.6848,VALID,118,VALID,0,
2012-10-02, 01:52:04,VALID,920.095,VALID,0,VALID,92.2891,VALID,0,VALID,19.6863,VALID,118,VALID,0,
2012-10-02, 01:53:04,VALID,920.101,VALID,0,VALID,92.5864,VALID,0,VALID,19.7058,VALID,118,VALID,0,
2012-10-02, 01:54:04,VALID,920.11,VALID,0,VALID,92.7389,VALID,0,VALID,19.7058,VALID,118,VALID,0,
2012-10-02, 01:55:04,VALID,920.069,VALID,0,VALID,92.7389,VALID,0,VALID,19.7253,VALID,118,VALID,0,
2012-10-02, 01:56:04,VALID,920.1,VALID,0,VALID,92.7084,VALID,0,VALID,19.7448,VALID,118,VALID,0,
2012-10-02, 01:57:04,VALID,920.057,VALID,0,VALID,92.7236,VALID,0,VALID,19.7643,VALID,118,VALID,0,
2012-10-02, 01:58:04,VALID,920.075,VALID,0,VALID,92.6779,VALID,0,VALID,19.7838,VALID,118,VALID,0,
2012-10-02, 01:59:04,VALID,920.094,VALID,0,VALID,92.5711,VALID,0,VALID,19.8033,VALID,118,VALID,0,
2012-10-02, 02:00:04,VALID,920.084,VALID,0,VALID,92.5025,VALID,0,VALID,19.7823,VALID,118,VALID,0,
2012-10-02, 02:01:04,VALID,920.062,VALID,0,VALID,92.533,VALID,0,VALID,19.8033,VALID,118,VALID,0,
2012-10-02, 02:02:04,VALID,920.041,VALID,0,VALID,92.4339,VALID,0,VALID,19.8033,VALID,118,VALID,0,
2012-10-02, 02:03:04,VALID,920.022,VALID,0,VALID,92.3882,VALID,0,VALID,19.7628,VALID,118,VALID,0,
2012-10-02, 02:04:04,VALID,919.969,VALID,0,VALID,92.4492,VALID,0,VALID,19.7643,VALID,118,VALID,0,
2012-10-02, 02:05:04,VALID,919.971,VALID,0,VALID,92.5788,VALID,0,VALID,19.7238,VALID,118,VALID,0,
2012-10-02, 02:06:04,VALID,919.927,VALID,0,VALID,92.655,VALID,0,VALID,19.7058,VALID,118,VALID,0,
2012-10-02, 02:07:04,VALID,919.931,VALID,0,VALID,92.7846,VALID,0,VALID,19.6668,VALID,118,VALID,0,
2012-10-02, 02:08:04,VALID,919.913,VALID,0,VALID,92.9676,VALID,0,VALID,19.6068,VALID,118,VALID,0,
2012-10-02, 02:09:04,VALID,919.937,VALID,0,VALID,93.1276,VALID,0,VALID,19.6083,VALID,118,VALID,0,
2012-10-02, 02:10:04,VALID,919.898,VALID,0,VALID,93.2725,VALID,0,VALID,19.6083,VALID,118,VALID,0,
2012-10-02, 02:11:04,VALID,919.95,VALID,0,VALID,93.3411,VALID,0,VALID,19.5693,VALID,118,VALID,0,
2012-10-02, 02:12:04,VALID,919.928,VALID,0,VALID,93.425,VALID,0,VALID,19.5888,VALID,118,VALID,0,
2012-10-02, 02:13:04,VALID,919.927,VALID,0,VALID,93.4402,VALID,0,VALID,19.5678,VALID,118,VALID,0,
2012-10-02, 02:14:04,VALID,919.922,VALID,0,VALID,93.3487,VALID,0,VALID,19.6068,VALID,118,VALID,0,
2012-10-02, 02:15:04,VALID,919.899,VALID,0,VALID,93.2191,VALID,0,VALID,19.6458,VALID,118,VALID,0,
2012-10-02, 02:16:04,VALID,919.887,VALID,0,VALID,93.0972,VALID,0,VALID,19.7253,VALID,118,VALID,0,
2012-10-02, 02:17:04,VALID,919.854,VALID,0,VALID,93.0133,VALID,0,VALID,19.7433,VALID,118,VALID,0,
2012-10-02, 02:18:04,VALID,919.861,VALID,0,VALID,92.9599,VALID,0,VALID,19.7823,VALID,118,VALID,0,
2012-10-02, 02:19:04,VALID,919.835,VALID,0,VALID,92.7007,VALID,0,VALID,19.8033,VALID,118,VALID,0,
2012-10-02, 02:20:04,VALID,919.813,VALID,0,VALID,92.5559,VALID,0,VALID,19.8213,VALID,118,VALID,0,
2012-10-02, 02:21:04,VALID,919.817,VALID,0,VALID,92.4339,VALID,0,VALID,19.8423,VALID,118,VALID,0,
2012-10-02, 02:22:04,VALID,919.823,VALID,0,VALID,92.3272,VALID,0,VALID,19.8603,VALID,118,VALID,0,
2012-10-02, 02:23:04,VALID,919.826,VALID,0,VALID,92.2281,VALID,0,VALID,19.8993,VALID,118,VALID,0,
2012-10-02, 02:24:04,VALID,919.835,VALID,0,VALID,92.2586,VALID,0,VALID,19.9188,VALID,118,VALID,0,
2012-10-02, 02:25:04,VALID,919.833,VALID,0,VALID,92.0756,VALID,0,VALID,19.9593,VALID,118,VALID,0,
2012-10-02, 02:26:04,VALID,919.831,VALID,0,VALID,91.8469,VALID,0,VALID,19.9773,VALID,118,VALID,0,
2012-10-02, 02:27:04,VALID,919.805,VALID,0,VALID,91.6182,VALID,0,VALID,20.0179,VALID,118,VALID,0,
2012-10-02, 02:28:04,VALID,919.783,VALID,0,VALID,91.5496,VALID,0,VALID,20.0179,VALID,118,VALID,0,
2012-10-02, 02:29:04,VALID,919.796,VALID,0,VALID,91.542,VALID,0,VALID,20.0358,VALID,118,VALID,0,
2012-10-02, 02:30:04,VALID,919.775,VALID,0,VALID,91.4048,VALID,0,VALID,20.0749,VALID,118,VALID,0,
2012-10-02, 02:31:04,VALID,919.798,VALID,0,VALID,91.1608,VALID,0,VALID,20.0749,VALID,118,VALID,0,
2012-10-02, 02:32:04,VALID,919.764,VALID,0,VALID,90.8787,VALID,0,VALID,20.0553,VALID,118,VALID,0,
2012-10-02, 02:33:04,VALID,919.785,VALID,0,VALID,91.016,VALID,0,VALID,20.0358,VALID,118,VALID,0,
2012-10-02, 02:34:04,VALID,919.77,VALID,0,VALID,91.3285,VALID,0,VALID,20.0163,VALID,118,VALID,0,
2012-10-02, 02:35:04,VALID,919.804,VALID,0,VALID,91.542,VALID,0,VALID,19.9383,VALID,118,VALID,0,
2012-10-02, 02:36:04,VALID,919.775,VALID,0,VALID,91.8012,VALID,0,VALID,19.8993,VALID,118,VALID,0,
2012-10-02, 02:37:04,VALID,919.775,VALID,0,VALID,92.0985,VALID,0,VALID,19.8798,VALID,118,VALID,0,
2012-10-02, 02:38:04,VALID,919.793,VALID,0,VALID,92.2052,VALID,0,VALID,19.8798,VALID,118,VALID,0,
2012-10-02, 02:39:04,VALID,919.803,VALID,0,VALID,92.0451,VALID,0.107441,VALID,19.8798,VALID,118,VALID,0,
2012-10-02, 02:40:04,VALID,919.777,VALID,0,VALID,91.9613,VALID,0,VALID,19.8993,VALID,118,VALID,0,
2012-10-02, 02:41:04,VALID,919.785,VALID,0,VALID,91.8317,VALID,0,VALID,19.8993,VALID,118,VALID,0,
2012-10-02, 02:42:04,VALID,919.811,VALID,0,VALID,91.824,VALID,0,VALID,19.8993,VALID,118,VALID,0,
2012-10-02, 02:43:04,VALID,919.765,VALID,0,VALID,91.7402,VALID,0,VALID,19.8993,VALID,118,VALID,0,
2012-10-02, 02:44:04,VALID,919.793,VALID,0,VALID,91.6258,VALID,0.107441,VALID,19.8993,VALID,118,VALID,0,
2012-10-02, 02:45:04,VALID,919.795,VALID,0,VALID,91.4581,VALID,0,VALID,19.8798,VALID,118,VALID,0,
2012-10-02, 02:46:04,VALID,919.815,VALID,0,VALID,91.4429,VALID,0,VALID,19.8603,VALID,118,VALID,0,
2012-10-02, 02:47:04,VALID,919.843,VALID,0,VALID,91.3895,VALID,0,VALID,19.8798,VALID,118,VALID,0,
2012-10-02, 02:48:04,VALID,919.84,VALID,0,VALID,91.3666,VALID,0,VALID,19.8603,VALID,118,VALID,0,
2012-10-02, 02:49:04,VALID,919.856,VALID,0,VALID,91.2294,VALID,0,VALID,19.8798,VALID,118,VALID,0,
2012-10-02, 02:50:04,VALID,919.879,VALID,0,VALID,91.0693,VALID,0,VALID,19.9188,VALID,118,VALID,0,
2012-10-02, 02:51:04,VALID,919.864,VALID,0,VALID,90.8101,VALID,0,VALID,19.9593,VALID,118,VALID,0,
2012-10-02, 02:52:04,VALID,919.815,VALID,0,VALID,90.6195,VALID,0,VALID,19.9968,VALID,118,VALID,0,
2012-10-02, 02:53:04,VALID,919.853,VALID,0,VALID,90.3832,VALID,0,VALID,20.0163,VALID,117,VALID,0,
2012-10-02, 02:54:04,VALID,919.799,VALID,0,VALID,90.1469,VALID,0,VALID,20.0553,VALID,117,VALID,0,
2012-10-02, 02:55:04,VALID,919.781,VALID,0,VALID,90.0249,VALID,0,VALID,20.0944,VALID,118,VALID,0,
2012-10-02, 02:56:04,VALID,919.791,VALID,0,VALID,89.9563,VALID,0,VALID,20.0749,VALID,117,VALID,0,
2012-10-02, 02:57:04,VALID,919.79,VALID,0,VALID,89.9029,VALID,0,VALID,20.0944,VALID,117,VALID,0,
2012-10-02, 02:58:04,VALID,919.782,VALID,0,VALID,89.9258,VALID,0,VALID,20.1139,VALID,118,VALID,0,
2012-10-02, 02:59:04,VALID,919.798,VALID,0,VALID,89.8953,VALID,0,VALID,20.1334,VALID,117,VALID,0,
2012-10-02, 03:00:04,VALID,919.808,VALID,0,VALID,89.8267,VALID,0,VALID,20.1334,VALID,117,VALID,0,
2012-10-02, 03:01:04,VALID,919.775,VALID,0,VALID,89.781,VALID,0,VALID,20.1334,VALID,117,VALID,0,
2012-10-02, 03:02:04,VALID,919.731,VALID,0,VALID,89.9029,VALID,0,VALID,20.1334,VALID,117,VALID,0,
2012-10-02, 03:03:04,VALID,919.72,VALID,0,VALID,90.0554,VALID,0,VALID,20.1334,VALID,117,VALID,0,
2012-10-02, 03:04:04,VALID,919.689,VALID,0,VALID,90.0478,VALID,0,VALID,20.0749,VALID,118,VALID,0,
2012-10-02, 03:05:04,VALID,919.652,VALID,0,VALID,90.2994,VALID,0,VALID,20.0163,VALID,117,VALID,0,
2012-10-02, 03:06:04,VALID,919.645,VALID,0,VALID,90.6424,VALID,0,VALID,19.9383,VALID,117,VALID,0,
2012-10-02, 03:07:04,VALID,919.621,VALID,0,VALID,90.9855,VALID,0,VALID,19.8798,VALID,117,VALID,0,
2012-10-02, 03:08:04,VALID,919.618,VALID,0,VALID,91.1608,VALID,0,VALID,19.8603,VALID,117,VALID,0,
2012-10-02, 03:09:04,VALID,919.627,VALID,0,VALID,91.1303,VALID,0,VALID,19.8798,VALID,51,VALID,0,
2012-10-02, 03:10:04,VALID,919.629,VALID,0,VALID,90.833,VALID,0,VALID,19.8798,VALID,51,VALID,0,
2012-10-02, 03:11:04,VALID,919.581,VALID,0,VALID,90.6424,VALID,0,VALID,19.9383,VALID,51,VALID,0,
2012-10-02, 03:12:04,VALID,919.596,VALID,0,VALID,90.5357,VALID,0,VALID,19.9383,VALID,51,VALID,0,
2012-10-02, 03:13:04,VALID,919.548,VALID,0,VALID,90.4213,VALID,0,VALID,19.9578,VALID,51,VALID,0,
2012-10-02, 03:14:04,VALID,919.533,VALID,0,VALID,90.3527,VALID,0,VALID,19.9984,VALID,51,VALID,0,
2012-10-02, 03:15:04,VALID,919.529,VALID,0,VALID,90.2765,VALID,0,VALID,19.9773,VALID,51,VALID,0,
2012-10-02, 03:16:04,VALID,919.531,VALID,0,VALID,90.246,VALID,0,VALID,19.9984,VALID,51,VALID,0,
2012-10-02, 03:17:04,VALID,919.505,VALID,0,VALID,90.3222,VALID,0,VALID,19.9773,VALID,51,VALID,0,
2012-10-02, 03:18:04,VALID,919.539,VALID,0,VALID,90.246,VALID,0,VALID,19.9773,VALID,51,VALID,0,
2012-10-02, 03:19:04,VALID,919.596,VALID,0,VALID,90.1774,VALID,0.107441,VALID,19.9968,VALID,51,VALID,0,
2012-10-02, 03:20:04,VALID,919.601,VALID,0,VALID,90.1088,VALID,0,VALID,19.9984,VALID,51,VALID,0,
2012-10-02, 03:21:04,VALID,919.638,VALID,0,VALID,90.1164,VALID,0,VALID,19.9788,VALID,51,VALID,0,
2012-10-02, 03:22:04,VALID,919.62,VALID,0,VALID,90.2003,VALID,0,VALID,19.9383,VALID,51,VALID,0,
2012-10-02, 03:23:04,VALID,919.629,VALID,0,VALID,90.3527,VALID,0,VALID,19.9203,VALID,51,VALID,0,
2012-10-02, 03:24:04,VALID,919.62,VALID,0,VALID,90.5128,VALID,0,VALID,19.9203,VALID,51,VALID,0,
2012-10-02, 03:25:04,VALID,919.616,VALID,0,VALID,90.6653,VALID,0,VALID,19.8813,VALID,51,VALID,0,
2012-10-02, 03:26:04,VALID,919.604,VALID,0,VALID,91.0541,VALID,0,VALID,19.8423,VALID,51,VALID,0,
2012-10-02, 03:27:04,VALID,919.62,VALID,0,VALID,91.4124,VALID,0,VALID,19.7838,VALID,51,VALID,0,
2012-10-02, 03:28:04,VALID,919.604,VALID,0,VALID,91.7326,VALID,0,VALID,19.7043,VALID,51,VALID,0,
2012-10-02, 03:29:04,VALID,919.635,VALID,0,VALID,92.0375,VALID,0,VALID,19.6458,VALID,51,VALID,0,
2012-10-02, 03:30:04,VALID,919.594,VALID,0,VALID,92.2891,VALID,0,VALID,19.6068,VALID,51,VALID,0,
2012-10-02, 03:31:04,VALID,919.596,VALID,0,VALID,92.007,VALID,0,VALID,19.5483,VALID,51,VALID,0,
2012-10-02, 03:32:04,VALID,919.574,VALID,0,VALID,92.0756,VALID,0,VALID,19.5303,VALID,51,VALID,0,
2012-10-02, 03:33:04,VALID,919.552,VALID,0,VALID,91.9384,VALID,0,VALID,19.4508,VALID,51,VALID,0,
2012-10-02, 03:34:04,VALID,919.534,VALID,0,VALID,92.1519,VALID,0,VALID,19.4118,VALID,51,VALID,0,
2012-10-02, 03:35:04,VALID,919.506,VALID,0,VALID,92.3806,VALID,0,VALID,19.4327,VALID,51,VALID,0,
2012-10-02, 03:36:04,VALID,919.458,VALID,0,VALID,92.5788,VALID,0,VALID,19.4313,VALID,51,VALID,0,
2012-10-02, 03:37:04,VALID,919.447,VALID,0,VALID,92.6397,VALID,0,VALID,19.4703,VALID,51,VALID,0,
2012-10-02, 03:38:04,VALID,919.422,VALID,0,VALID,92.6397,VALID,0,VALID,19.4898,VALID,51,VALID,0,
2012-10-02, 03:39:04,VALID,919.421,VALID,0,VALID,92.5635,VALID,0,VALID,19.5483,VALID,51,VALID,0,
2012-10-02, 03:40:04,VALID,919.385,VALID,0,VALID,92.472,VALID,0,VALID,19.6278,VALID,51,VALID,0,
2012-10-02, 03:41:04,VALID,919.362,VALID,0,VALID,91.8317,VALID,0,VALID,19.6263,VALID,51,VALID,0,
2012-10-02, 03:42:04,VALID,919.323,VALID,0,VALID,91.6335,VALID,0,VALID,19.6068,VALID,51,VALID,0,
2012-10-02, 03:43:04,VALID,919.304,VALID,0,VALID,91.7554,VALID,0,VALID,19.6263,VALID,51,VALID,0,
2012-10-02, 03:44:04,VALID,919.296,VALID,0,VALID,91.8393,VALID,0,VALID,19.6668,VALID,51,VALID,0,
2012-10-02, 03:45:04,VALID,919.313,VALID,0,VALID,91.9613,VALID,0,VALID,19.6848,VALID,51,VALID,0,
2012-10-02, 03:46:04,VALID,919.311,VALID,0,VALID,91.8622,VALID,0,VALID,19.7448,VALID,51,VALID,0,
2012-10-02, 03:47:04,VALID,919.338,VALID,0,VALID,91.7554,VALID,0,VALID,19.7643,VALID,51,VALID,0,
2012-10-02, 03:48:04,VALID,919.353,VALID,0,VALID,91.6335,VALID,0,VALID,19.7433,VALID,51,VALID,0,
2012-10-02, 03:49:04,VALID,919.354,VALID,0,VALID,91.1303,VALID,0,VALID,19.7433,VALID,51,VALID,0,
2012-10-02, 03:50:04,VALID,919.311,VALID,0,VALID,89.9792,VALID,0,VALID,19.6653,VALID,51,VALID,0,
2012-10-02, 03:51:04,VALID,919.324,VALID,0,VALID,90.6195,VALID,0,VALID,19.6473,VALID,51,VALID,0,
2012-10-02, 03:52:04,VALID,919.294,VALID,0,VALID,91.3971,VALID,0,VALID,19.5888,VALID,51,VALID,0,
2012-10-02, 03:53:04,VALID,919.286,VALID,0,VALID,91.9231,VALID,0,VALID,19.5693,VALID,51,VALID,0,
2012-10-02, 03:54:04,VALID,919.309,VALID,0,VALID,92.0832,VALID,0,VALID,19.5108,VALID,51,VALID,0,
2012-10-02, 03:55:04,VALID,919.281,VALID,0,VALID,92.3958,VALID,0,VALID,19.5108,VALID,51,VALID,0,
2012-10-02, 03:56:04,VALID,919.292,VALID,0,VALID,92.5025,VALID,0,VALID,19.5108,VALID,51,VALID,0,
2012-10-02, 03:57:04,VALID,919.275,VALID,0,VALID,92.6016,VALID,0,VALID,19.5108,VALID,51,VALID,0,
2012-10-02, 03:58:04,VALID,919.29,VALID,0,VALID,92.3958,VALID,0,VALID,19.4913,VALID,51,VALID,0,
2012-10-02, 03:59:04,VALID,919.294,VALID,0,VALID,92.2052,VALID,0,VALID,19.4913,VALID,51,VALID,0,